OBJECT BV

基本信息
目录编号:
69936
目录名称:
OBJECT BV
国际标识:
2026-156BV
轨道中心:
EARTH
物体状态:
在轨
发射日期:
2026-07-07 UTC
国别:
(TBD)
轨道信息
数据来源: 国际轨道数据
星历时间: 2026-09-04T20:57:55+0800
半长轴: 6967.987km
偏心率: 0.0009025
轨道倾角: 97.741°
近地点辐角: 325.227°
升交点赤经: 147.036°
平近点角: 34.836°
近地点: 583.561km
远地点: 596.139km
周期: 96.476分钟
每日圈数: 14.925945
详细信息
发射场:
AFWTR
轨道高度:
LEO
数据来源:
AOE Integration Group
参考系:
TEME
时间系统:
UTC
历元类型:
SGP4
2D轨道图
3D轨道图
轨道高度分析图
轨道倾角分析图
轨道综合分析图
查看轨道综合分析图